Weather History for Lone Rock, WI

Change the Weather History Date:

Tuesday, April 3, 2012

  Actual Average Record
Temperature  
Mean Temperature 56 °F -  
Max Temperature 66 °F 50 °F 66 °F (2005)
Min Temperature 44 °F 31 °F 19 °F (2013)
Degree Days  
Heating Degree Days 9    
Growing Degree Days 6 (Base 50)    
Moisture  
Dew Point 41 °F    
Average Humidity 61    
Maximum Humidity 82    
Minimum Humidity 47    
Precipitation  
Precipitation 0.00 in - - ()
Sea Level Pressure  
Sea Level Pressure 29.90 in    
Wind  
Wind Speed 8 mph (NE)    
Max Wind Speed 17 mph    
Max Gust Speed 28 mph    
Visibility 10 miles    
Events      
Averages and records for this station are not official NWS values.
T = Trace of Precipitation, MM = Missing Value Source: NWS Daily Summary

Daily Weather History Graph

Daily Weather History Graph

Search for Another Location

Airport:

Trip Planner

Search our weather history database for the weather conditions in past years. The results will help you decide how hot, cold, wet, or windy it might be!

Date:

Astronomy

Apr. 03, 2012 Rise Set
Actual Time 6:38 AM CDT 7:30 PM CDT
Civil Twilight 6:09 AM CDT 7:59 PM CDT
Nautical Twilight 5:35 AM CDT 8:33 PM CDT
Astronomical Twilight 4:59 AM CDT 9:09 PM CDT
Moon 4:09 PM CDT (4/3) 4:31 AM CDT (4/3)
Length of Visible Light 13h 49m
Length of Day
12h 51m
Waxing Gibbous, 87% of the Moon is Illuminated
Apr 3
Waxing Gibbous
Apr 6
Full
Apr 13
Last Quarter
Apr 21
New
Apr 29
First Quarter

Hourly Weather History & Observations

Time (CDT) Temp. Windchill Dew Point Humidity Pressure Visibility Wind Dir Wind Speed Gust Speed Precip Events Conditions
12:56 AM 50.0 °F - 36.0 °F 59% 29.84 in 10.0 mi ESE 9.2 mph - N/A   Scattered Clouds
1:56 AM 48.9 °F - 36.0 °F 61% 29.83 in 10.0 mi ESE 9.2 mph - N/A   Clear
2:56 AM 46.9 °F - 37.0 °F 68% 29.80 in 10.0 mi ESE 8.1 mph - N/A   Clear
3:56 AM 46.9 °F - 37.0 °F 68% 29.78 in 10.0 mi ESE 5.8 mph - N/A   Clear
4:56 AM 46.0 °F 44.8 °F 37.9 °F 73% 29.81 in 10.0 mi North 3.5 mph - N/A   Clear
5:56 AM 48.9 °F - 37.9 °F 66% 29.86 in 10.0 mi NNE 11.5 mph - N/A   Scattered Clouds
6:56 AM 46.9 °F - 37.9 °F 71% 29.88 in 10.0 mi ENE 3.5 mph - N/A   Clear
7:56 AM 48.0 °F - 39.0 °F 71% 29.88 in 10.0 mi ESE 3.5 mph - N/A   Clear
8:56 AM 52.0 °F - 39.9 °F 63% 29.89 in 10.0 mi Calm Calm - N/A   Clear
9:56 AM 57.9 °F - 41.0 °F 53% 29.90 in 10.0 mi North 6.9 mph - N/A   Clear
10:56 AM 62.1 °F - 43.0 °F 50% 29.91 in 10.0 mi North 11.5 mph 16.1 mph N/A   Partly Cloudy
11:56 AM 62.1 °F - 43.0 °F 50% 29.92 in 10.0 mi NNE 10.4 mph 16.1 mph N/A   Partly Cloudy
12:56 PM 66.0 °F - 45.0 °F 47% 29.91 in 10.0 mi North 15.0 mph 20.7 mph N/A   Clear
1:56 PM 64.9 °F - 44.1 °F 47% 29.91 in 10.0 mi North 17.3 mph 27.6 mph N/A   Clear
2:56 PM 64.0 °F - 45.0 °F 50% 29.91 in 10.0 mi NNE 16.1 mph 25.3 mph N/A   Overcast
3:56 PM 62.1 °F - 45.0 °F 53% 29.92 in 10.0 mi NE 11.5 mph 24.2 mph N/A   Overcast
4:56 PM 62.1 °F - 45.0 °F 53% 29.93 in 10.0 mi NNE 11.5 mph - N/A   Overcast
5:56 PM 61.0 °F - 45.0 °F 56% 29.93 in 10.0 mi NE 9.2 mph - N/A   Overcast
6:56 PM 61.0 °F - 45.0 °F 56% 29.94 in 10.0 mi NE 8.1 mph - N/A   Partly Cloudy
7:56 PM 57.9 °F - 43.0 °F 58% 29.96 in 10.0 mi NNE 8.1 mph - N/A   Clear
8:56 PM 55.0 °F - 42.1 °F 62% 29.98 in 10.0 mi NNE 6.9 mph - N/A   Partly Cloudy
9:56 PM 50.0 °F - 41.0 °F 71% 30.00 in 10.0 mi NNE 3.5 mph - N/A   Clear
10:56 PM 51.1 °F - 41.0 °F 68% 29.99 in 10.0 mi NNE 5.8 mph - N/A   Clear
11:56 PM 44.1 °F 42.5 °F 39.0 °F 82% 30.00 in 10.0 mi East 3.5 mph - N/A   Clear